Ceredo, WV

1:46 AM EDT on September 30, 2016 (GMT -0400)
Tri-State / Ferguson

Weather History for KHTS - May, 2013

Change the Weather History Date:

Tuesday, May 7, 2013

  Actual Average Record
Temperature  
Mean Temperature 60 °F 62 °F  
Max Temperature 67 °F 73 °F 92 °F (1940)
Min Temperature 52 °F 50 °F 30 °F (1970)
Degree Days  
Heating Degree Days 5 5  
Month to date heating degree days 21 37  
Since 1 July heating degree days 4454 4425  
Cooling Degree Days 0 2  
Month to date cooling degree days 5 8  
Year to date cooling degree days 48 40  
Growing Degree Days 9 (Base 50)    
Moisture  
Dew Point 54 °F    
Average Humidity 84    
Maximum Humidity 100    
Minimum Humidity 68    
Precipitation  
Precipitation 0.28 in 0.14 in 1.94 in (1994)
Month to date precipitation 0.78 1.00  
Year to date precipitation 12.78 14.38  
Snow  
Snow 0.00 in - - ()
Month to date snowfall 0.0  
Since 1 September snowfall 12.4  
Snow Depth 0.00 in    
Sea Level Pressure  
Sea Level Pressure 29.92 in    
Wind  
Wind Speed 2 mph (North)    
Max Wind Speed 8 mph    
Max Gust Speed 10 mph    
Visibility 5 miles    
Events Fog , Rain , Thunderstorm    
T = Trace of Precipitation, MM = Missing Value Source: NWS Daily Summary

Daily Weather History Graph

Daily Weather History Graph

Search for Another Location

Airport or City:

Trip Planner

Search our weather history database for the weather conditions in past years. The results will help you decide how hot, cold, wet, or windy it might be!

Date:

Astronomy

May. 07, 2013 Rise Set
Actual Time 6:26 AM EDT 8:27 PM EDT
Civil Twilight 5:57 AM EDT 8:56 PM EDT
Nautical Twilight 5:22 AM EDT 9:32 PM EDT
Astronomical Twilight 4:43 AM EDT 10:10 PM EDT
Moon 4:58 AM EDT (5/7) 6:27 PM EDT (5/7)
Length of Visible Light 14h 59m
Length of Day
14h 01m
Waning Crescent, 5% of the Moon is Illuminated
May 7
Waning Crescent
May 9
New
May 18
First Quarter
May 25
Full
May 31
Last Quarter

Hourly Weather History & Observations

Time (EDT) Temp. Dew Point Humidity Pressure Visibility Wind Dir Wind Speed Gust Speed Precip Events Conditions
12:51 AM 55.9 °F 54.0 °F 93% 29.91 in 10.0 mi ESE 5.8 mph - N/A   Mostly Cloudy
1:51 AM 54.0 °F 53.1 °F 97% 29.90 in 10.0 mi NE 4.6 mph - N/A   Clear
2:51 AM 54.0 °F 52.0 °F 93% 29.90 in 10.0 mi NE 3.5 mph - N/A   Clear
3:51 AM 53.1 °F 52.0 °F 96% 29.90 in 7.0 mi Calm Calm - N/A   Clear
3:59 AM 53.6 °F 51.8 °F 94% 29.91 in 1.2 mi Calm Calm - N/A   Clear
4:07 AM 51.8 °F 51.8 °F 100% 29.91 in 0.5 mi Calm Calm - N/A Fog Fog
4:11 AM 53.6 °F 51.8 °F 94% 29.91 in 1.0 mi Calm Calm - N/A   Mist
4:15 AM 53.6 °F 51.8 °F 94% 29.91 in 2.5 mi Calm Calm - N/A   Scattered Clouds
4:18 AM 53.6 °F 51.8 °F 94% 29.91 in 2.5 mi Calm Calm - N/A   Mostly Cloudy
4:51 AM 53.1 °F 52.0 °F 96% 29.90 in 2.0 mi North 3.5 mph - N/A   Overcast
5:03 AM 53.6 °F 51.8 °F 94% 29.90 in 2.0 mi North 3.5 mph - N/A   Overcast
5:51 AM 52.0 °F 51.1 °F 97% 29.91 in 2.0 mi North 3.5 mph - N/A   Overcast
5:58 AM 53.6 °F 51.8 °F 94% 29.91 in 2.0 mi North 3.5 mph - N/A   Overcast
6:39 AM 53.6 °F 51.8 °F 94% 29.92 in 0.5 mi North 3.5 mph - N/A Fog Fog
6:46 AM 53.6 °F 51.8 °F 94% 29.92 in 0.5 mi NNW 3.5 mph - N/A Fog Fog
6:51 AM 53.1 °F 52.0 °F 96% 29.92 in 0.5 mi NNW 3.5 mph - N/A Fog Fog
7:04 AM 53.6 °F 53.6 °F 100% 29.92 in 2.0 mi NNW 3.5 mph - N/A   Overcast
7:13 AM 53.6 °F 53.6 °F 100% 29.92 in 1.0 mi NW 3.5 mph - N/A   Overcast
7:18 AM 53.6 °F 53.6 °F 100% 29.93 in 0.5 mi NNW 4.6 mph - N/A Fog Fog
7:39 AM 53.6 °F 53.6 °F 100% 29.93 in 0.5 mi Calm Calm - N/A Fog Fog
7:51 AM 55.0 °F 53.1 °F 93% 29.93 in 4.0 mi North 3.5 mph - N/A   Overcast
8:51 AM 55.9 °F 54.0 °F 93% 29.94 in 7.0 mi North 3.5 mph - N/A   Overcast
9:34 AM 55.4 °F 53.6 °F 94% 29.95 in 10.0 mi Calm Calm - N/A   Overcast
9:51 AM 57.0 °F 54.0 °F 89% 29.95 in 10.0 mi North 3.5 mph - N/A   Overcast
10:51 AM 59.0 °F 55.0 °F 87% 29.96 in 10.0 mi NNW 3.5 mph - N/A   Overcast
11:49 AM 60.8 °F 55.4 °F 82% 29.96 in 10.0 mi NW 4.6 mph - N/A   Overcast
11:51 AM 60.8 °F 55.4 °F 82% 29.96 in 10.0 mi WNW 4.6 mph - N/A   Overcast
12:39 PM 62.6 °F 55.4 °F 77% 29.95 in 10.0 mi Calm Calm - N/A   Overcast
12:51 PM 64.0 °F 55.0 °F 73% 29.94 in 10.0 mi Calm Calm - N/A   Mostly Cloudy
1:35 PM 66.2 °F 55.4 °F 68% 29.93 in 10.0 mi Variable 4.6 mph - N/A   Overcast
1:51 PM 66.9 °F 55.0 °F 66% 29.92 in 10.0 mi Calm Calm - N/A   Mostly Cloudy
2:51 PM 63.0 °F 55.0 °F 75% 29.91 in 4.0 mi Calm Calm - 0.00 in Rain Light Rain
3:26 PM 60.8 °F 59.0 °F 94% 29.93 in 1.0 mi ENE 4.6 mph - 0.07 in Rain Rain
3:51 PM 60.1 °F 57.9 °F 93% 29.93 in 1.0 mi ENE 4.6 mph - 0.18 in Rain , Thunderstorm Thunderstorms and Rain
4:28 PM 60.8 °F 57.2 °F 88% 29.92 in 4.0 mi Calm Calm - 0.10 in Rain Light Rain
4:51 PM 61.0 °F 57.9 °F 90% 29.91 in 4.0 mi NNE 4.6 mph - 0.10 in   Overcast
5:51 PM 62.1 °F 57.9 °F 86% 29.90 in 10.0 mi Calm Calm - N/A   Scattered Clouds
6:51 PM 61.0 °F 57.0 °F 87% 29.91 in 10.0 mi NNW 3.5 mph - N/A   Partly Cloudy
7:51 PM 59.0 °F 57.0 °F 93% 29.92 in 10.0 mi Calm Calm - N/A   Scattered Clouds
8:51 PM 57.9 °F 55.9 °F 93% 29.92 in 9.0 mi Calm Calm - N/A   Clear
9:20 PM 55.4 °F 55.4 °F 100% 29.93 in 1.5 mi WNW 3.5 mph - N/A   Clear
9:39 PM 57.2 °F 55.4 °F 94% 29.93 in 3.0 mi Calm Calm - N/A   Clear
9:51 PM 57.0 °F 55.9 °F 96% 29.93 in 6.0 mi Calm Calm - N/A   Clear
10:13 PM 57.2 °F 55.4 °F 94% 29.94 in 2.0 mi Calm Calm - N/A   Clear
10:22 PM 55.4 °F 55.4 °F 100% 29.94 in 3.0 mi Calm Calm - N/A   Scattered Clouds
10:29 PM 55.4 °F 55.4 °F 100% 29.94 in 2.0 mi Calm Calm - N/A   Scattered Clouds
10:40 PM 55.4 °F 53.6 °F 94% 29.94 in 0.8 mi Calm Calm - N/A   Scattered Clouds
10:46 PM 55.4 °F 53.6 °F 94% 29.94 in 0.2 mi Calm Calm - N/A Fog Fog
10:51 PM 55.0 °F 54.0 °F 96% 29.93 in 0.8 mi Calm Calm - N/A   Mostly Cloudy
10:59 PM 55.4 °F 53.6 °F 94% 29.93 in 1.2 mi Calm Calm - N/A   Mostly Cloudy
11:06 PM 55.4 °F 53.6 °F 94% 29.94 in 0.8 mi Calm Calm - N/A   Mostly Cloudy
11:27 PM 53.6 °F 53.6 °F 100% 29.94 in 0.2 mi Calm Calm - N/A Fog Fog
11:39 PM 53.6 °F 53.6 °F 100% 29.93 in 0.2 mi SW 3.5 mph - N/A Fog Fog
11:51 PM 54.0 °F 53.1 °F 97% 29.93 in 0.2 mi Calm Calm - N/A Fog Fog